Weather History for TNCM - January, 2013

Change the Weather History Date:

Saturday, January 5, 2013

  Actual Average Record
Temperature  
Mean Temperature 80 °F -  
Max Temperature 84 °F 81 °F 86 °F (2001)
Min Temperature 76 °F 72 °F 71 °F (2001)
Cooling Degree Days 15    
Growing Degree Days 30 (Base 50)    
Moisture  
Dew Point 69 °F    
Average Humidity 68    
Maximum Humidity 78    
Minimum Humidity 53    
Precipitation  
Precipitation 0.00 in 0.08 in - ()
Sea Level Pressure  
Sea Level Pressure 30.12 in    
Wind  
Wind Speed 13 mph ()    
Max Wind Speed 22 mph    
Max Gust Speed -    
Visibility 7.8 miles    
Events Rain    
Averages and records for this station are not official NWS values.
T = Trace of Precipitation, MM = Missing Value Source: Averaged Metar Reports

Daily Weather History Graph

Daily Weather History Graph

Search for Another Location

Airport or City:

Trip Planner

Search our weather history database for the weather conditions in past years. The results will help you decide how hot, cold, wet, or windy it might be!

Date:

Astronomy

Jan. 05, 2013 Rise Set
Actual Time 6:45 AM AST 5:50 PM AST
Civil Twilight 6:21 AM AST 6:14 PM AST
Nautical Twilight 5:54 AM AST 6:41 PM AST
Astronomical Twilight 5:27 AM AST 7:08 PM AST
Moon 12:16 AM AST (1/5) 12:12 PM AST (1/5)
Length of Visible Light 11h 52m
Length of Day
11h 05m
Last Quarter, 44% of the Moon is Illuminated
Jan 5
Last Quarter
Jan 11
New
Jan 18
First Quarter
Jan 27
Full
Feb 3
Last Quarter

Hourly Weather History & Observations

Time (AST) Temp. Heat Index Dew Point Humidity Pressure Visibility Wind Dir Wind Speed Gust Speed Precip Events Conditions
12:00 AM 77.0 °F - 69.8 °F 78% 30.12 in 6.2 mi East 13.8 mph - N/A   Partly Cloudy
1:00 AM 77.0 °F - 68.0 °F 74% 30.12 in 6.2 mi East 12.7 mph - N/A   Partly Cloudy
2:00 AM 78 °F - 68 °F 65% 30.11 in 16 mi East 11.5 mph - - Rain Light Rain Showers
2:00 AM 77.0 °F - 68.0 °F 74% 30.09 in 6.2 mi East 11.5 mph - N/A Rain Light Rain Showers
3:00 AM 77.0 °F - 68.0 °F 74% 30.09 in 6.2 mi ENE 13.8 mph - N/A   Partly Cloudy
4:00 AM 77.0 °F - 69.8 °F 78% 30.09 in 6.2 mi ENE 12.7 mph - N/A   Partly Cloudy
5:00 AM 78 °F - 69 °F 68% 30.11 in 19 mi East 12.7 mph - -   Scattered Clouds
5:00 AM 77.0 °F - 69.8 °F 78% 30.09 in 6.2 mi East 12.7 mph - N/A   Partly Cloudy
6:00 AM 77.0 °F - 69.8 °F 78% 30.09 in 6.2 mi East 11.5 mph - N/A   Scattered Clouds
7:00 AM 78.8 °F - 69.8 °F 74% 30.12 in 6.2 mi East 11.5 mph - N/A   Scattered Clouds
8:00 AM 78 °F - 70 °F 69% 30.17 in 19 mi East 15.0 mph - - Rain Light Rain Showers
8:00 AM 78.8 °F - 69.8 °F 74% 30.15 in 6.2 mi East 15.0 mph - N/A   Mostly Cloudy
9:00 AM 80.6 °F 83.9 °F 69.8 °F 70% 30.18 in 6.2 mi East 13.8 mph - N/A   Scattered Clouds
10:00 AM 82.4 °F 86.3 °F 69.8 °F 66% 30.18 in 6.2 mi East 17.3 mph - N/A   Mostly Cloudy
11:00 AM 83 °F - 68 °F 53% 30.18 in 25 mi East 16.1 mph - -   Mostly Cloudy
11:00 AM 84.2 °F 88.4 °F 69.8 °F 62% 30.15 in 6.2 mi ENE 17.3 mph - N/A   Mostly Cloudy
12:00 PM 82.4 °F 86.3 °F 69.8 °F 66% 30.15 in 6.2 mi ENE 17.3 mph - N/A   Mostly Cloudy
1:00 PM 84.2 °F 88.4 °F 69.8 °F 62% 30.12 in 6.2 mi ENE 16.1 mph - N/A   Mostly Cloudy
2:00 PM 83 °F - 69 °F 54% 30.12 in 16 mi East 18.4 mph - -   Partly Cloudy
2:00 PM 82.4 °F 86.3 °F 69.8 °F 66% 30.09 in 6.2 mi ENE 18.4 mph - N/A   Scattered Clouds
3:00 PM 82.4 °F 86.3 °F 69.8 °F 66% 30.09 in 6.2 mi East 17.3 mph - N/A   Mostly Cloudy
4:00 PM 82.4 °F 85.4 °F 68.0 °F 62% 30.09 in 6.2 mi ENE 17.3 mph - N/A   Scattered Clouds
5:00 PM 81 °F - 69 °F 58% 30.11 in 22 mi East 18.4 mph - -   Partly Cloudy
5:00 PM 80.6 °F 83.2 °F 68.0 °F 65% 30.09 in 6.2 mi East 18.4 mph - N/A   Scattered Clouds
6:00 PM 78.8 °F - 69.8 °F 74% 30.09 in 6.2 mi East 13.8 mph - N/A   Scattered Clouds
7:00 PM 78.8 °F - 69.8 °F 74% 30.09 in 6.2 mi East 17.3 mph - N/A   Mostly Cloudy
8:00 PM 79 °F - 68 °F 61% 30.14 in 22 mi East 19.6 mph - -   Partly Cloudy
8:00 PM 78.8 °F - 68.0 °F 69% 30.12 in 6.2 mi East 19.6 mph - N/A   Scattered Clouds
9:00 PM 78.8 °F - 68.0 °F 69% 30.15 in 6.2 mi East 17.3 mph - N/A   Scattered Clouds
10:00 PM 78.8 °F - 69.8 °F 74% 30.12 in 6.2 mi East 21.9 mph - N/A   Scattered Clouds
11:00 PM 78 °F - 69 °F 66% 30.14 in 22 mi East 16.1 mph - -   Partly Cloudy
11:00 PM 78.8 °F - 68.0 °F 69% 30.12 in 6.2 mi East 16.1 mph - N/A   Scattered Clouds